User: anonymous   Login
Location: Innerarity Island Observatory
(30.3139°N, 87.4867°W)
Time: 09:12:28
(UTC-05:00)
Language:

JAS-2 - Orbit

View from above orbital plane
View from above orbital plane
View from above satellite
View from above satellite

Ground track
Ground track

The orbit data is extracted from the following two-line orbital elements,

1 24278U 96046B   16147.79973259 -.00000013  00000-0  25704-4 0  9995
2 24278  98.5854  75.8115 0349347 257.9736  98.2055 13.53067595976623
Epoch (UTC): 26 May 2016 19:11:36
Eccentricity: 0.0349347
inclination: 98.5854°
perigee height: 801 km
apogee height: 1321 km
right ascension of ascending node: 75.8115°
argument of perigee: 257.9736°
revolutions per day: 13.53067595
mean anomaly at epoch: 98.2055°
orbit number at epoch: 97662

The dashed part of the orbit path shows where the satellite is in the earth's shadow,  

DLR